Regional Weather Roundup
Issued by NWS

Home | Current Version | Previous Version | Text Only | Print | Product List | Glossary On
Versions: 1 2 3 4 5 6 7 8 9 10 11 12 13 14 15 16 17 18 19 20 21 22 23 24 25 26 27
000
ASPQ40 PGUM 210412
RWRPQ
WEATHER ROUNDUP FOR THE MARIANAS AND MICRONESIA
NATIONAL WEATHER SERVICE TIYAN GU
200 PM CHST MON AUG 21 2017

GUZ001>004-210500-
MARIANA ISLANDS-

CITY           SKY/WX    TMP DP  RH WIND       PRES   REMARKS
GUAM AIRPORT   MOSUNNY   84  77  79 SE10      29.81F HX  94
ANDERSEN AFB   PTSUNNY   84  77  79 S10       29.87F HX  94
ROTA AIRPORT   PTSUNNY   82  77  83 S7        29.80F HX  91
TINIAN AP      PTSUNNY   84  75  74 S8        29.77F HX  92
SAIPAN AP      MOSUNNY   91  77  62 S13       29.79F HX 105

$$

PMZ161-210500-
REPUBLIC OF PALAU-

CITY           SKY/WX    TMP DP  RH WIND       PRES   REMARKS
KOROR AP       CLOUDY    82  77  83 SW5       29.76F HX  91
KOROR WSO      CLOUDY    86  77  74 SW7       29.77F HX  97

$$

PMZ171>174-210500-
FEDERATED STATES OF MICRONESIA-

CITY           SKY/WX    TMP DP  RH WIND       PRES   REMARKS
YAP AIRPORT    CLOUDY    86  79  79 VRB6      29.75F HX  99
CHUUK AP       CLOUDY    88  86  94 VRB5      29.75F HX 116
POHNPEI AP     NOT AVBL
POHNPEI WSO    CLOUDY    88  75  66 W10       29.76S HX  97
KOSRAE AP      PTSUNNY   88  81  79 SW8       29.73F HX 105

$$

PMZ181-210500-
REPUBLIC OF THE MARSHALL ISLANDS-

CITY           SKY/WX    TMP DP  RH WIND       PRES   REMARKS
KWAJALEIN AP   MOSUNNY   88  73  62 E10       29.77S HX  96
MAJURO AP      LGT RAIN  84  75  74 E12       29.78S HX  92
MAJURO WSO     LGT RAIN  82  75  78 E5        29.77S

$$





USA.gov is the U.S. government's official web portal to all federal, state and local government web resources and services.